Estació municipal de Vilalleons (Osona, E.N.Guilleries-Savassona)

Consulta les dades en temps real de l'estació municipal de Vilalleons





Hora UTC 10:25
Temperatura 17.4 ºC
Humitat 63.0 %
Pressió 1014.3 hPa
Pluja 0.0 mm
Velocitat vent 3.2 km/h
Direcció vent SW

Webcam

Dades diàries 2026-05-07



Hora UTC (hivern +1h; estiu +2h)
Temperatura (ºC) Humitat (%) Pressió (hPa) Velocitat vent (km/h) Precipitació (mm)
Hora UTC Aire Humitat Pressió Vel. Dir. Vel. Max Dir. Intent. màx 5 min.
00:05 10.2 90.0 1014.2 0.0 N 0.0 0.0
00:10 10.1 90.0 1014.0 0.0 N 0.0 0.0
00:15 9.9 90.0 1014.1 0.0 N 0.0 0.0
00:20 9.8 90.0 1014.0 0.0 N 0.0 0.0
00:25 9.7 90.0 1014.2 0.0 N 0.0 0.0
00:30 9.7 90.0 1014.1 0.0 N 0.0 0.0
00:35 9.6 90.0 1014.2 0.0 N 0.0 0.0
00:40 9.4 91.0 1014.1 0.0 N 0.0 0.0
00:45 9.3 90.0 1014.0 0.0 N 0.0 0.0
00:50 9.2 91.0 1014.0 0.0 N 0.0 0.0
00:55 9.0 90.0 1013.9 0.0 N 0.0 0.0
01:00 8.8 90.0 1013.8 0.0 N 0.0 0.0
01:05 8.5 90.0 1013.8 0.0 N 0.0 0.0
01:10 8.3 90.0 1013.6 0.0 N 0.0 0.0
01:15 8.2 90.0 1013.5 0.0 N 0.0 0.0
01:20 7.9 90.0 1013.7 0.0 SE 0.0 0.0
01:25 7.7 90.0 1013.7 0.0 N 0.0 0.0
01:30 7.5 90.0 1013.6 0.0 N 0.0 0.0
01:35 7.3 91.0 1013.5 0.0 SE 0.0 0.0
01:40 7.2 91.0 1013.6 0.0 SE 0.0 0.0
01:45 7.1 91.0 1013.7 0.0 N 0.0 0.0
01:50 7.1 91.0 1013.7 0.0 N 0.0 0.0
01:55 7.0 92.0 1013.7 0.0 SE 0.0 0.0
02:00 6.9 92.0 1013.7 0.0 N 0.0 0.0
02:05 6.8 91.0 1013.7 0.0 SE 0.0 0.0
02:10 6.7 92.0 1013.6 0.0 N 0.0 0.0
02:15 6.6 92.0 1013.6 0.0 N 0.0 0.0
02:20 6.5 92.0 1013.6 0.0 N 3.2 0.0
02:25 6.4 92.0 1013.5 1.6 SE 3.2 0.0
02:30 6.3 92.0 1013.5 3.2 SE 3.2 0.0
02:35 6.4 93.0 1013.4 1.6 N 3.2 0.0
02:40 6.3 92.0 1013.4 1.6 SE 3.2 0.0
02:45 6.2 92.0 1013.4 0.0 SE 3.2 0.0
02:50 6.2 93.0 1013.4 0.0 N 1.6 0.0
02:55 6.3 93.0 1013.4 0.0 N 0.0 0.0
03:00 6.2 93.0 1013.5 0.0 N 0.0 0.0
03:05 6.2 93.0 1013.4 0.0 N 0.0 0.0
03:10 6.0 93.0 1013.4 0.0 N 0.0 0.0
03:15 6.0 93.0 1013.3 0.0 N 0.0 0.0
03:20 6.0 93.0 1013.3 0.0 N 0.0 0.0
03:25 6.0 93.0 1013.3 0.0 N 0.0 0.0
03:30 5.9 93.0 1013.3 0.0 N 0.0 0.0
03:35 5.8 93.0 1013.4 0.0 N 0.0 0.0
03:40 5.7 93.0 1013.3 0.0 SE 0.0 0.0
03:45 5.7 93.0 1013.3 0.0 N 0.0 0.0
03:50 5.6 93.0 1013.4 0.0 N 0.0 0.0
03:55 5.6 93.0 1013.4 0.0 N 0.0 0.0
04:00 5.6 94.0 1013.2 0.0 SE 0.0 0.0
04:05 5.6 94.0 1013.3 0.0 N 0.0 0.0
04:10 5.6 94.0 1013.3 0.0 N 0.0 0.0
04:15 5.6 94.0 1013.3 0.0 N 0.0 0.0
04:20 5.6 94.0 1013.4 0.0 N 0.0 0.0
04:25 5.6 94.0 1013.4 0.0 SE 0.0 0.0
04:30 5.6 94.0 1013.3 0.0 SE 0.0 0.0
04:35 5.6 94.0 1013.1 0.0 N 0.0 0.0
04:40 5.6 94.0 1013.2 0.0 SE 0.0 0.0
04:45 5.6 94.0 1013.3 0.0 N 0.0 0.0
04:50 5.5 94.0 1013.3 0.0 SE 0.0 0.0
04:55 5.4 94.0 1013.3 0.0 SE 0.0 0.0
05:00 5.5 94.0 1013.3 0.0 N 0.0 0.0
05:05 5.5 95.0 1013.4 0.0 N 0.0 0.0
05:10 5.5 95.0 1013.4 0.0 N 0.0 0.0
05:15 5.4 95.0 1013.4 0.0 SE 0.0 0.0
05:20 5.4 95.0 1013.4 3.2 N 4.8 0.0
05:25 5.5 95.0 1013.4 1.6 SE 4.8 0.0
05:30 5.6 95.0 1013.5 0.0 SE 4.8 0.0
05:35 5.7 96.0 1013.5 0.0 SE 4.8 0.0
05:40 5.8 96.0 1013.6 1.6 SE 3.2 0.0
05:45 5.8 96.0 1013.6 1.6 SE 3.2 0.0
05:50 6.0 96.0 1013.7 0.0 SE 3.2 0.0
05:55 6.1 96.0 1013.7 0.0 SE 1.6 0.0
06:00 6.4 97.0 1013.9 0.0 N 1.6 0.0
06:05 6.7 97.0 1013.8 0.0 SE 1.6 0.0
06:10 6.9 97.0 1013.9 0.0 SE 0.0 0.0
06:15 7.2 97.0 1013.9 0.0 SE 0.0 0.0
06:20 7.4 97.0 1013.8 0.0 SE 0.0 0.0
06:25 7.7 98.0 1013.9 0.0 SE 0.0 0.0
06:30 7.9 98.0 1013.9 0.0 SE 0.0 0.0
06:35 8.2 98.0 1013.8 0.0 SE 0.0 0.0
06:40 8.3 98.0 1013.9 0.0 SE 0.0 0.0
06:45 8.5 98.0 1013.8 0.0 NE 0.0 0.0
06:50 8.7 98.0 1013.9 0.0 NE 0.0 0.0
06:55 8.7 97.0 1014.0 0.0 NE 0.0 0.0
07:00 8.8 97.0 1013.9 0.0 NE 0.0 0.0
07:05 8.9 98.0 1014.0 0.0 N 0.0 0.0
07:10 9.0 97.0 1014.0 0.0 N 0.0 0.0
07:15 9.2 98.0 1014.2 0.0 N 0.0 0.0
07:20 9.4 98.0 1014.3 0.0 N 0.0 0.0
07:25 9.6 98.0 1014.5 0.0 NW 0.0 0.0
07:30 9.9 98.0 1014.5 3.2 N 6.4 0.0
07:35 10.1 98.0 1014.4 1.6 N 6.4 0.0
07:40 10.4 97.0 1014.6 4.8 NNW 4.8 0.0
07:45 10.6 96.0 1014.5 3.2 NNW 6.4 0.0
07:50 10.8 95.0 1014.6 3.2 NNE 6.4 0.0
07:55 11.1 93.0 1014.6 3.2 NNW 6.4 0.0
08:00 11.3 92.0 1014.5 3.2 N 6.4 0.0
08:05 11.6 90.0 1014.5 0.0 NNW 8.0 0.0
08:10 11.6 89.0 1014.5 3.2 NNE 8.0 0.0
08:15 12.0 88.0 1014.6 3.2 NNW 8.0 0.0
08:20 12.2 88.0 1014.8 1.6 ESE 6.4 0.0
08:25 12.6 86.0 1014.5 1.6 SE 6.4 0.0
08:30 12.8 85.0 1014.7 4.8 ESE 9.7 0.0
08:35 13.4 85.0 1014.5 3.2 WSW 8.0 0.0
08:40 13.7 81.0 1014.6 4.8 W 11.3 0.0
08:45 14.1 80.0 1014.5 6.4 WSW 11.3 0.0
08:50 14.4 79.0 1014.5 4.8 SW 9.7 0.0
08:55 15.0 80.0 1014.3 4.8 W 11.3 0.0
09:00 15.3 75.0 1014.3 1.6 NW 11.3 0.0
09:05 15.6 77.0 1014.5 4.8 WSW 11.3 0.0
09:10 15.6 72.0 1014.6 4.8 W 12.9 0.0
09:15 15.9 73.0 1014.5 1.6 SW 8.0 0.0
09:20 16.2 72.0 1014.5 4.8 SSE 11.3 0.0
09:25 16.6 69.0 1014.6 1.6 S 9.7 0.0
09:30 16.7 68.0 1014.7 6.4 WSW 8.0 0.0
09:35 16.8 68.0 1014.8 8.0 SSW 9.7 0.0
09:40 16.8 65.0 1014.9 8.0 SW 12.9 0.0
09:45 16.8 67.0 1014.8 1.6 SSE 12.9 0.0
09:50 17.0 64.0 1014.8 1.6 SSW 9.7 0.0
09:55 17.6 68.0 1014.9 4.8 SW 9.7 0.0
10:00 18.1 63.0 1014.9 4.8 SSW 14.5 0.0
10:05 17.9 64.0 1014.9 4.8 SE 14.5 0.0
10:10 18.0 65.0 1014.8 1.6 SE 9.7 0.0
10:15 17.6 62.0 1014.6 1.6 N 9.7 0.0
10:20 17.3 61.0 1014.3 0.0 SW 11.3 0.0
10:25 17.4 63.0 1014.3 3.2 SW 11.3 0.0
Màxima 18.1 98.0 1014.9 8.0 SW 14.5 0.0
Mínima 5.4 61.0 1013.1
Total 0.0